Погода в Багерове

Россия / Республика Крым     45°22′24″N   36°17′45″E
темп.,
°C
ветер,
м/с
пор.,
м/с
влажн.,
%
обл.,
%
осадки,
мм/ч
давл.,
гПа
погр.,
м
13 мая, чт
чт1300:00+10ю227869 0.0 101327
03:00+9ююз11775 0.0 101213
06:00+10св11695 0.0 101216
09:00+17св4449100 0.0 1012443
12:00+19в5657100 0.0 1012568
15:00+21в565276 0.0 1011668
18:00+19всв466460 0.0 1010301
21:00+15в22845 0.0 101014
14 мая, пт
пт1400:00+15юв22885 0.0 100915
03:00+14юз22595 0.0 100913
06:00+15зюз226165 0.0 100915
09:00+21зюз234383 0.0 1010283
12:00+25ююз02365 0.0 1010795
15:00+24вюв21425 0.0 1011683
18:00+23ююз11460 0.0 1011490
21:00+16вюв11660 0.0 101111
15 мая, сб
сб1500:00+16зюз2275100 0.2 101216
03:00+14сз347811 0.3 101355
06:00+14ссз358953 0.0 1013105
09:00+20ссв345514 0.0 1014449
12:00+23св3245100 0.0 1014891
15:00+24св4343100 0.0 1013806
18:00+21ссв4550100 0.0 1012269
21:00+16св34543 0.0 101243
16 мая, вс
вс1600:00+16ссв455633 0.0 101169
03:00+16св4856100 0.0 1010124
06:00+16св38725 0.0 1009142
09:00+22всв695946 0.0 1008435
12:00+25всв796676 0.0 1006740
15:00+25всв6766100 0.0 1005653
18:00+22св6117189 0.3 1003324
21:00+19св36829 0.4 100387
17 мая, пн
пн1700:00+18ю3493100 0.6 100384
03:00+18с4794100 5.9 1002133
06:00+16юз5893100 0.0 1003193
09:00+19ю687273 0.4 1004359
12:00+20ю557599 0.1 1006514
15:00+21ю2370100 0.1 1006711
18:00+21ю137092 0.1 1007461
21:00+16ююз349225 0.5 101098